When you browse on this site, cookies collect data to enhance your experience and personalize the content and advertising you see.
Visit our Privacy Policy to learn more. By continuing to use the site, you agree to this use of cookies and data.
  • In Deutschland
  • Länderverzeichnis
  • Für 7 Tage
  • Wassertemperatur
  • Satellitenkarten
  • Wetterkarte
  • Widgets
  • user-avatar
    Anmelden

    Stündliche Wetter Hrodna

    Heute, 19 Juni, Mittwoch

    Zeit Temperatur Niederschläge Wind Luftdruck Luftfeuchtigkeit
    00:00 +16°C° 0 mm 1 m/S 754 mmHg 83%
    01:00 +16°C° 0 mm 1 m/S 754 mmHg 84%
    02:00 +16°C° 0 mm 1 m/S 754 mmHg 86%
    03:00 +16°C° 0 mm 1 m/S 753 mmHg 86%
    04:00 +16°C° 0 mm 2 m/S 753 mmHg 85%
    05:00 +16°C° 0 mm 2 m/S 753 mmHg 85%
    06:00 +17°C° 0 mm 2 m/S 753 mmHg 81%
    07:00 +19°C° 0 mm 2 m/S 753 mmHg 77%
    08:00 +21°C° 0 mm 3 m/S 753 mmHg 73%
    09:00 +22°C° 0 mm 3 m/S 753 mmHg 69%
    10:00 +24°C° 0 mm 3 m/S 753 mmHg 65%
    11:00 +26°C° 0 mm 3 m/S 753 mmHg 60%
    12:00 +26°C° 0 mm 3 m/S 752 mmHg 59%
    13:00 +26°C° 0 mm 4 m/S 752 mmHg 58%
    14:00 +27°C° 0 mm 4 m/S 752 mmHg 56%
    15:00 +27°C° 0 mm 4 m/S 751 mmHg 58%
    16:00 +26°C° 0 mm 4 m/S 751 mmHg 59%
    17:00 +26°C° 0 mm 4 m/S 750 mmHg 61%
    18:00 +25°C° 0 mm 4 m/S 750 mmHg 68%
    19:00 +24°C° 0 mm 3 m/S 750 mmHg 74%
    20:00 +22°C° 0 mm 3 m/S 750 mmHg 81%
    21:00 +21°C° 0 mm 3 m/S 750 mmHg 83%
    22:00 +20°C° 0 mm 3 m/S 750 mmHg 86%
    23:00 +19°C° 0 mm 3 m/S 750 mmHg 88%

    Morgen, 20 Juni, Donnerstag

    Zeit Temperatur Niederschläge Wind Luftdruck Luftfeuchtigkeit
    00:00 +18°C° 0 mm 3 m/S 750 mmHg 88%
    01:00 +18°C° 0 mm 3 m/S 749 mmHg 89%
    02:00 +18°C° 0 mm 3 m/S 749 mmHg 90%
    03:00 +18°C° 0.3 mm 3 m/S 749 mmHg 92%
    04:00 +18°C° 0.3 mm 3 m/S 749 mmHg 93%
    05:00 +18°C° 0.3 mm 3 m/S 749 mmHg 95%
    06:00 +19°C° 0.3 mm 3 m/S 749 mmHg 94%
    07:00 +19°C° 0.3 mm 3 m/S 749 mmHg 93%
    08:00 +20°C° 0.3 mm 4 m/S 748 mmHg 92%
    09:00 +22°C° 0.7 mm 4 m/S 748 mmHg 87%
    10:00 +23°C° 0.7 mm 4 m/S 748 mmHg 83%
    11:00 +26°C° 0.7 mm 5 m/S 748 mmHg 79%
    12:00 +26°C° 1 mm 4 m/S 748 mmHg 77%
    13:00 +27°C° 1 mm 3 m/S 748 mmHg 75%
    14:00 +27°C° 1 mm 2 m/S 747 mmHg 73%
    15:00 +28°C° 0.3 mm 2 m/S 747 mmHg 70%
    16:00 +28°C° 0.3 mm 1 m/S 747 mmHg 67%
    17:00 +29°C° 0.3 mm 1 m/S 747 mmHg 64%
    18:00 +27°C° 0.2 mm 1 m/S 747 mmHg 70%
    19:00 +26°C° 0.2 mm 1 m/S 747 mmHg 75%
    20:00 +25°C° 0.2 mm 1 m/S 747 mmHg 81%
    21:00 +24°C° 0 mm 1 m/S 747 mmHg 83%
    22:00 +23°C° 0 mm 1 m/S 747 mmHg 85%
    23:00 +22°C° 0 mm 1 m/S 748 mmHg 87%

    übermorgen, 21 Juni, Freitag

    Zeit Temperatur Niederschläge Wind Luftdruck Luftfeuchtigkeit
    00:00 +22°C° 0 mm 1 m/S 748 mmHg 87%
    01:00 +21°C° 0 mm 1 m/S 748 mmHg 87%
    02:00 +21°C° 0 mm 1 m/S 748 mmHg 87%
    03:00 +21°C° 0 mm 1 m/S 748 mmHg 87%
    04:00 +19°C° 0 mm 0 m/S 748 mmHg 87%
    05:00 +20°C° 0 mm 0 m/S 748 mmHg 87%
    06:00 +20°C° 0.7 mm 0 m/S 748 mmHg 87%
    07:00 +21°C° 0.7 mm 0 m/S 749 mmHg 86%
    08:00 +21°C° 0.7 mm 0 m/S 749 mmHg 86%
    09:00 +23°C° 0.2 mm 1 m/S 749 mmHg 85%
    10:00 +24°C° 0.2 mm 1 m/S 749 mmHg 83%
    11:00 +24°C° 0.2 mm 1 m/S 749 mmHg 82%
    12:00 +26°C° 0 mm 1 m/S 749 mmHg 74%
    13:00 +28°C° 0 mm 1 m/S 749 mmHg 66%
    14:00 +29°C° 0 mm 1 m/S 749 mmHg 58%
    15:00 +29°C° 0.3 mm 1 m/S 749 mmHg 59%
    16:00 +29°C° 0.3 mm 1 m/S 749 mmHg 61%
    17:00 +27°C° 0.3 mm 0 m/S 749 mmHg 62%
    18:00 +27°C° 0.9 mm 1 m/S 749 mmHg 70%
    19:00 +25°C° 0.9 mm 2 m/S 749 mmHg 78%
    20:00 +24°C° 0.9 mm 2 m/S 749 mmHg 87%
    21:00 +22°C° 0.5 mm 3 m/S 749 mmHg 88%
    22:00 +21°C° 0.5 mm 3 m/S 749 mmHg 90%
    23:00 +20°C° 0.5 mm 4 m/S 750 mmHg 92%

    22 Juni, Samstag

    Zeit Temperatur Niederschläge Wind Luftdruck Luftfeuchtigkeit
    00:00 +20°C° 0.8 mm 3 m/S 750 mmHg 93%
    01:00 +19°C° 0.8 mm 2 m/S 750 mmHg 95%
    02:00 +19°C° 0.8 mm 2 m/S 750 mmHg 96%
    03:00 +20°C° 0.3 mm 1 m/S 750 mmHg 93%
    04:00 +19°C° 0.3 mm 2 m/S 750 mmHg 95%
    05:00 +19°C° 0.3 mm 2 m/S 750 mmHg 96%
    06:00 +19°C° 0.1 mm 3 m/S 750 mmHg 95%
    07:00 +19°C° 0.1 mm 3 m/S 750 mmHg 95%
    08:00 +20°C° 0.1 mm 3 m/S 751 mmHg 94%
    09:00 +20°C° 0 mm 4 m/S 751 mmHg 92%
    10:00 +20°C° 0 mm 4 m/S 751 mmHg 90%
    11:00 +20°C° 0 mm 4 m/S 751 mmHg 87%
    12:00 +21°C° 0 mm 4 m/S 752 mmHg 83%
    13:00 +22°C° 0 mm 4 m/S 752 mmHg 78%
    14:00 +23°C° 0 mm 4 m/S 752 mmHg 73%
    15:00 +25°C° 0 mm 5 m/S 752 mmHg 72%
    16:00 +25°C° 0 mm 5 m/S 751 mmHg 71%
    17:00 +25°C° 0 mm 5 m/S 751 mmHg 70%
    18:00 +23°C° 0 mm 4 m/S 751 mmHg 74%
    19:00 +22°C° 0 mm 4 m/S 751 mmHg 78%
    20:00 +21°C° 0 mm 3 m/S 752 mmHg 82%
    21:00 +20°C° 0 mm 4 m/S 752 mmHg 85%
    22:00 +20°C° 0 mm 4 m/S 752 mmHg 88%
    23:00 +19°C° 0 mm 4 m/S 752 mmHg 90%

    23 Juni, Sonntag

    Zeit Temperatur Niederschläge Wind Luftdruck Luftfeuchtigkeit
    00:00 +19°C° 0.1 mm 4 m/S 752 mmHg 90%
    01:00 +19°C° 0.1 mm 4 m/S 752 mmHg 90%
    02:00 +19°C° 0.1 mm 4 m/S 751 mmHg 89%
    03:00 +18°C° 0.6 mm 4 m/S 751 mmHg 91%
    04:00 +18°C° 0.6 mm 4 m/S 751 mmHg 93%
    05:00 +17°C° 0.6 mm 4 m/S 751 mmHg 94%
    06:00 +17°C° 1.5 mm 4 m/S 751 mmHg 95%
    07:00 +16°C° 1.5 mm 5 m/S 751 mmHg 96%
    08:00 +16°C° 1.5 mm 5 m/S 750 mmHg 97%
    09:00 +16°C° 1 mm 5 m/S 750 mmHg 97%
    10:00 +17°C° 1 mm 5 m/S 750 mmHg 97%
    11:00 +17°C° 1 mm 5 m/S 750 mmHg 96%
    12:00 +17°C° 0.3 mm 5 m/S 749 mmHg 96%
    13:00 +17°C° 0.3 mm 5 m/S 749 mmHg 96%
    14:00 +19°C° 0.3 mm 5 m/S 749 mmHg 96%
    15:00 +19°C° 0.2 mm 5 m/S 749 mmHg 95%
    16:00 +19°C° 0.2 mm 5 m/S 748 mmHg 94%
    17:00 +19°C° 0.2 mm 5 m/S 748 mmHg 93%
    18:00 +19°C° 0.1 mm 5 m/S 748 mmHg 93%
    19:00 +17°C° 0.1 mm 5 m/S 748 mmHg 93%
    20:00 +17°C° 0.1 mm 5 m/S 748 mmHg 92%
    21:00 +16°C° 0.1 mm 5 m/S 749 mmHg 92%
    22:00 +16°C° 0.1 mm 5 m/S 749 mmHg 92%
    23:00 +16°C° 0.1 mm 6 m/S 749 mmHg 92%

    24 Juni, Montag

    Zeit Temperatur Niederschläge Wind Luftdruck Luftfeuchtigkeit
    00:00 +16°C° 0.2 mm 6 m/S 749 mmHg 92%
    01:00 +15°C° 0.2 mm 6 m/S 750 mmHg 92%
    02:00 +15°C° 0.2 mm 6 m/S 750 mmHg 92%
    03:00 +15°C° 0.1 mm 6 m/S 750 mmHg 92%
    04:00 +15°C° 0.1 mm 6 m/S 750 mmHg 92%
    05:00 +14°C° 0.1 mm 6 m/S 750 mmHg 92%
    06:00 +14°C° 0 mm 6 m/S 751 mmHg 91%
    07:00 +14°C° 0 mm 6 m/S 751 mmHg 90%
    08:00 +14°C° 0 mm 6 m/S 752 mmHg 90%
    09:00 +15°C° 0 mm 6 m/S 752 mmHg 87%
    10:00 +16°C° 0 mm 6 m/S 753 mmHg 85%
    11:00 +16°C° 0 mm 6 m/S 753 mmHg 82%
    12:00 +17°C° 0 mm 6 m/S 753 mmHg 80%
    13:00 +19°C° 0 mm 6 m/S 754 mmHg 77%
    14:00 +20°C° 0 mm 6 m/S 754 mmHg 74%
    15:00 +20°C° 0 mm 6 m/S 754 mmHg 71%
    16:00 +20°C° 0 mm 6 m/S 754 mmHg 69%
    17:00 +21°C° 0 mm 6 m/S 755 mmHg 66%
    18:00 +20°C° 0 mm 5 m/S 755 mmHg 69%
    19:00 +19°C° 0 mm 4 m/S 755 mmHg 72%
    20:00 +18°C° 0 mm 4 m/S 755 mmHg 75%
    21:00 +17°C° 0 mm 3 m/S 756 mmHg 78%
    22:00 +14°C° 0 mm 3 m/S 756 mmHg 80%
    23:00 +13°C° 0 mm 3 m/S 757 mmHg 82%
    Mehr zeigen